Location: Newark
(45.2500°N, 7.5833°E)
Time: 16:31:45
(UTC+00:00)

Transit 2A - All Passes

Search period start: 24 January 2020 00:00
Search period end: 03 February 2020 00:00
Orbit: 601 x 958 km, 66.7° (Epoch: 24 January)

Date Brightness Start Highest point End Pass type
(mag) Time Alt. Az. Time Alt. Az. Time Alt. Az.
24 Jan - 03:43:05 10° NNW 03:47:34 42° NE 03:52:27 10° ESE visible
24 Jan - 05:26:27 10° NW 05:30:35 29° WSW 05:35:04 10° S visible
24 Jan - 18:27:12 10° SSE 18:30:09 18° ESE 18:33:04 10° ENE visible
24 Jan - 20:08:34 10° SW 20:12:52 52° NW 20:17:08 10° NNE visible
24 Jan - 21:56:29 10° NW 21:57:05 10° NNW 21:57:41 10° NNW night (unlit)
25 Jan - 03:09:09 10° NNW 03:13:19 31° NE 03:17:50 10° ESE visible
25 Jan - 04:52:02 10° NW 04:56:33 42° WSW 05:01:30 10° S visible
25 Jan - 17:54:51 10° SE 17:56:14 11° ESE 17:57:36 10° E visible
25 Jan - 19:34:18 10° SW 19:38:42 78° WNW 19:43:04 10° NNE visible
25 Jan - 21:20:25 10° WNW 21:22:36 13° NW 21:24:48 10° N night (unlit)
26 Jan - 02:35:16 10° N 02:39:02 23° NE 02:43:02 10° E visible
26 Jan - 04:17:45 10° NW 04:22:29 61° WSW 04:27:42 10° SSE visible
26 Jan - 19:00:13 10° SSW 19:04:36 69° ESE 19:08:55 10° NE visible
26 Jan - 20:45:13 10° W 20:48:12 18° NW 20:51:12 10° N visible
27 Jan - 02:01:30 10° N 02:04:40 18° NE 02:08:00 10° E night (unlit)
27 Jan - 03:43:35 10° NNW 03:48:23 88° WSW 03:53:40 10° SSE visible
27 Jan - 05:28:56 10° W 05:30:58 12° WSW 05:33:03 10° SW visible
27 Jan - 18:26:20 10° S 18:30:32 44° ESE 18:34:41 10° NE visible
27 Jan - 20:10:17 10° W 20:13:51 24° NW 20:17:25 10° N visible
28 Jan - 01:27:54 10° N 01:30:15 14° NE 01:32:41 10° ENE night (unlit)
28 Jan - 03:09:29 10° NNW 03:14:15 65° NE 03:19:28 10° SE visible
28 Jan - 04:53:39 10° WNW 04:57:01 19° WSW 05:00:37 10° SSW visible
28 Jan - 17:52:43 10° S 17:56:31 29° ESE 18:00:17 10° NE visible
28 Jan - 19:35:36 10° WSW 19:39:34 33° NW 19:43:32 10° NNE visible
29 Jan - 00:54:53 10° NNE 00:55:46 10° NNE 00:56:41 10° NE night (unlit)
29 Jan - 02:35:29 10° NNW 02:40:04 46° NE 02:45:04 10° SE visible
29 Jan - 04:18:56 10° NW 04:23:03 27° WSW 04:27:28 10° SSW visible
29 Jan - 17:19:26 10° SSE 17:22:33 19° ESE 17:25:39 10° ENE visible
29 Jan - 19:01:06 10° SW 19:05:19 47° NW 19:09:34 10° NNE visible
30 Jan - 02:01:31 10° NNW 02:05:50 33° NE 02:10:30 10° ESE night (unlit)
30 Jan - 03:44:30 10° NW 03:49:01 39° WSW 03:53:58 10° S visible
30 Jan - 16:46:49 10° SE 16:48:38 12° ESE 16:50:28 10° E daylight
30 Jan - 18:26:47 10° SW 18:31:09 72° NW 18:35:31 10° NNE visible
30 Jan - 20:13:09 10° WNW 20:15:08 13° NW 20:17:07 10° N visible
31 Jan - 01:27:37 10° N 01:31:32 25° NE 01:35:44 10° E night (unlit)
31 Jan - 03:10:12 10° NW 03:14:58 57° WSW 03:20:12 10° SSE night (unlit)
31 Jan - 17:52:39 10° SSW 17:57:02 76° ESE 18:01:23 10° NE visible
31 Jan - 19:37:51 10° W 19:40:42 17° NW 19:43:35 10° N visible
01 Feb - 00:53:49 10° N 00:57:12 19° NE 01:00:46 10° E night (unlit)
01 Feb - 02:36:00 10° NW 02:40:52 82° WSW 02:46:14 10° SSE night (unlit)
01 Feb - 04:21:44 10° W 04:23:24 11° WSW 04:25:06 10° SW night (unlit)
01 Feb - 17:18:44 10° S 17:22:58 48° ESE 17:27:10 10° NE visible
01 Feb - 19:02:53 10° W 19:06:20 22° NW 19:09:49 10° N visible
02 Feb - 00:20:09 10° N 00:22:47 15° NE 00:25:32 10° ENE night (unlit)
02 Feb - 02:01:54 10° NNW 02:06:44 70° NE 02:12:03 10° SE night (unlit)
02 Feb - 03:46:13 10° WNW 03:49:29 17° WSW 03:52:55 10° SSW night (unlit)
02 Feb - 16:45:04 10° S 16:48:56 31° ESE 16:52:48 10° NE daylight
02 Feb - 18:28:09 10° WSW 18:32:02 31° NW 18:35:57 10° NNE visible
02 Feb - 23:46:50 10° NNE 23:48:19 11° NNE 23:49:51 10° NE night (unlit)
